GW3653 Weather Reports


time (UTC)temp
C
wind
direction
speed
KPH
gust
KPH
rain 1hr
cm
rain 24hr
cm
rain mn
cm
humidity
%
barometer
mb
20260505005518 13 113 1.6 3.2 0.00 0.00 0.00 90 1029.5
20260505004519 13 0.0 1.6 0.00 0.00 0.00 91 1029.4
20260505003518 13 90 1.6 3.2 0.00 0.00 0.00 92 1029.4
20260505002518 13 0.0 0.0 0.00 0.00 0.00 92 1029.3
20260505001518 13 0.0 1.6 0.00 0.00 0.00 93 1029.3
20260505000518 13 0.0 1.6 0.00 0.00 0.00 93 1029.2
20260504235519 12 0.0 0.0 0.00 0.00 0.00 93 1029.0
20260504234518 12 0.0 1.6 0.00 0.00 0.00 93 1028.9
20260504233518 12 0.0 0.0 0.00 0.00 0.00 93 1028.8
20260504232518 12 0.0 0.0 0.00 0.00 0.00 93 1028.8
20260504231518 12 0.0 0.0 0.00 0.00 0.00 93 1028.8
20260504230518 12 0.0 0.0 0.00 0.00 0.00 93 1028.6
20260504225518 12 0.0 0.0 0.00 0.00 0.00 93 1028.6
20260504224518 12 0.0 3.2 0.00 0.00 0.00 93 1028.5
20260504223519 12 0.0 0.0 0.00 0.00 0.00 93 1028.2
20260504222518 12 0.0 1.6 0.00 0.00 0.00 93 1028.2
20260504221518 12 0.0 0.0 0.00 0.00 0.00 93 1028.2
20260504220518 12 0.0 1.6 0.00 0.00 0.00 93 1028.2
20260504215518 12 0.0 1.6 0.00 0.00 0.00 93 1028.3
20260504214518 12 0.0 0.0 0.00 0.03 0.00 93 1028.2
20260504213518 12 0.0 0.0 0.00 0.03 0.00 93 1028.2
20260504212518 12 0.0 0.0 0.00 0.05 0.00 93 1028.3
20260504211518 12 0.0 0.0 0.00 0.05 0.00 93 1028.2
20260504210518 12 0.0 0.0 0.00 0.05 0.00 93 1028.2
20260504205538 12 0.0 0.0 0.00 0.05 0.00 93 1028.2
20260504204518 12 0.0 0.0 0.00 0.05 0.00 93 1028.1
20260504203518 12 0.0 0.0 0.00 0.05 0.00 93 1028.0
20260504202518 12 0.0 0.0 0.00 0.05 0.00 93 1027.8
20260504201518 12 0.0 1.6 0.00 0.05 0.00 93 1027.8
20260504200518 12 0.0 0.0 0.00 0.05 0.00 93 1027.8
20260504195518 12 0.0 0.0 0.00 0.05 0.00 93 1027.9
20260504194538 12 0.0 1.6 0.00 0.05 0.00 93 1027.9
20260504193538 12 0.0 0.0 0.00 0.05 0.00 93 1027.9
20260504192518 12 0.0 0.0 0.00 0.05 0.00 93 1027.9
20260504191518 12 0.0 0.0 0.00 0.05 0.00 93 1028.0
20260504190517 12 0.0 0.0 0.00 0.05 0.00 93 1028.0
20260504185518 12 0.0 0.0 0.00 0.05 0.00 93 1028.0
20260504184518 12 0.0 0.0 0.00 0.05 0.00 93 1027.9
20260504183517 12 0.0 0.0 0.00 0.08 0.00 93 1028.0
20260504182537 12 0.0 0.0 0.00 0.08 0.00 93 1028.0
20260504181517 11 0.0 0.0 0.00 0.08 0.00 93 1027.9
20260504180518 11 0.0 0.0 0.00 0.08 0.00 92 1027.9
20260504175537 11 0.0 0.0 0.00 0.08 0.00 92 1028.0
20260504174517 11 0.0 0.0 0.00 0.08 0.00 92 1028.0
20260504173518 11 0.0 0.0 0.00 0.08 0.00 92 1028.0
20260504172518 11 0.0 0.0 0.00 0.08 0.00 92 1028.1
20260504171517 11 0.0 0.0 0.00 0.08 0.00 92 1028.0
20260504170517 11 0.0 0.0 0.00 0.08 0.00 92 1028.1
20260504150517 12 0.0 0.0 0.00 0.08 0.08 90 1028.6
20260504140517 13 0.0 0.0 0.00 0.10 0.08 90 1028.8
20260504130517 13 0.0 0.0 0.00 0.10 0.08 90 1029.0
20260504110518 15 0.0 3.2 0.00 0.10 0.08 89 1029.0
20260504100518 15 0.0 3.2 0.00 0.10 0.08 87 1028.6
20260504081518 16 113 1.6 4.8 0.00 0.10 0.08 82 1028.1
20260504080517 17 158 1.6 6.4 0.00 0.10 0.08 82 1028.1
20260504050517 17 0.0 1.6 0.00 0.10 0.08 71 1028.0
20260504045537 18 270 1.6 4.8 0.00 0.10 0.08 70 1028.2
20260504044537 18 0.0 1.6 0.00 0.10 0.08 72 1028.2
20260504043518 17 0.0 0.0 0.00 0.10 0.08 75 1028.4
20260504042517 17 0.0 1.6 0.00 0.10 0.08 75 1028.6
20260504041537 17 0.0 1.6 0.00 0.10 0.08 76 1028.7
20260504040517 17 0.0 3.2 0.00 0.10 0.08 75 1028.8
20260504035517 16 225 1.6 6.4 0.00 0.10 0.08 79 1028.8
20260504034517 16 225 1.6 4.8 0.00 0.10 0.08 81 1029.0
20260504033517 16 225 1.6 4.8 0.00 0.10 0.08 84 1029.1
20260504032517 16 225 1.6 4.8 0.00 0.10 0.08 86 1029.3
20260504031517 16 248 1.6 6.4 0.00 0.10 0.08 89 1029.3
20260504030518 16 248 1.6 4.8 0.00 0.10 0.08 91 1029.3
20260504025517 16 0.0 3.2 0.00 0.10 0.08 92 1029.4
20260504024537 15 225 1.6 3.2 0.00 0.10 0.08 93 1029.3
20260504023519 15 0.0 1.6 0.00 0.10 0.08 94 1029.4
20260504022519 15 180 1.6 3.2 0.00 0.10 0.08 94 1029.4
20260504021519 15 0.0 3.2 0.00 0.10 0.08 94 1029.4
20260504020519 15 225 1.6 4.8 0.00 0.10 0.08 94 1029.4
20260504015519 14 0.0 1.6 0.00 0.10 0.08 94 1029.4
20260504014519 14 248 1.6 3.2 0.00 0.10 0.08 94 1029.3
20260504013519 13 0.0 4.8 0.00 0.10 0.08 94 1029.4
20260504012519 13 225 1.6 4.8 0.00 0.10 0.08 95 1029.6
20260504011519 13 0.0 3.2 0.00 0.10 0.08 95 1029.6
20260504010519 13 0.0 1.6 0.00 0.10 0.08 95 1029.6